Location: Unspecified
(0.0000°N, 0.0000°E)
Time: 10:32:07
(UTC+00:00)

Explorer 11/Cluster Stage 4 - Pass Details

Date: 03 October 2020
Orbit: 467 x 1258 km, 28.8° (Epoch: 28 October)

Event Time Altitude Azimuth Distance (km) Brightness Sun altitude
Rises 05:34:45 0° 311° (NW) 3,902 9.7 -3.5°
Reaches altitude 10° 05:37:29 10° 316° (NW) 3,033 9.1 -2.9°
Maximum altitude 05:45:01 53° 31° (NNE) 1,481 8.2 -1.0°
Drops below altitude 10° 05:53:02 10° 106° (ESE) 3,222 11.7 1.0°
Sets 05:56:00 0° 110° (ESE) 4,161 12.2 1.8°
